AirNav   ProFlight Series 2 Aviation Headset
 
 1310 users online  

L33 Tensas Parish Airport
St Joseph, Louisiana, USA

GOING TO ST JOSEPH?


FAA INFORMATION EFFECTIVE 16 JULY 2020

Location

FAA Identifier: L33
Lat/Long: 31-58-23.5900N 091-14-19.4400W
31-58.393167N 091-14.324000W
31.9732194,-91.2387333
(estimated)
Elevation: 74.2 ft. / 22.6 m (surveyed)
Variation: 04E (1985)
From city: 4 miles NE of ST JOSEPH, LA
Time zone: UTC -5 (UTC -6 during Standard Time)
Zip code: 71366

Airport Operations

Airport use: Open to the public
Activation date: 07/1986
Control tower: no
ARTCC: MEMPHIS CENTER
FSS: DE RIDDER FLIGHT SERVICE STATION
NOTAMs facility: DRI (NOTAM-D service available)
Attendance: UNATNDD
FOR ARPT ATTENDANT CALL 318-282-0348 OR 318-372-7277.
Wind indicator: lighted
Segmented circle: yes
Lights: MIRL RY 16/34 PRESET LOW INTST; TO INCR INTST ACTVT - CTAF.
Beacon: white-green (lighted land airport)
Operates sunset to sunrise.

Airport Communications

CTAF: 122.9

Nearby radio navigation aids

VOR radial/distance  VOR name  Freq  Var
HEZr005/21.5NATCHEZ VOR/DME110.0003E

 
NDB name  Hdg/Dist  Freq  Var  ID
NATCHEZ-ADAMS COUNTY009/17.238800EHAH .... .- ....
TALLULAH212/19.634402ETKH - -.- ....

Airport Services

Fuel available: 100LL
Parking: tiedowns

Runway Information

Runway 16/34

Dimensions: 3509 x 75 ft. / 1070 x 23 m
Surface: asphalt, in good condition
Weight bearing capacity: 
Single wheel: 12.0
Runway edge lights: medium intensity
RUNWAY 16  RUNWAY 34
Latitude: 31-58.665833N31-58.120500N
Longitude: 091-14.437667W091-14.210333W
Elevation: 74.2 ft.74.1 ft.
Traffic pattern: leftleft
Markings: basic, in good conditionbasic, in good condition
Obstructions: 15 ft. road, 435 ft. from runway, 15:1 slope to clear68 ft. trees, 1486 ft. from runway, 18:1 slope to clear

Airport Ownership and Management from official FAA records

Ownership: Publicly-owned
Owner: TENSAS PARISH POLICE JURY
PO BOX 6168
ST JOSEPH, LA 71366
Phone 318-766-3542
Manager: RON WILHITE
PO BOX 557
ST JOSEPH, LA 71366
Phone (318) 537-1475

Airport Operational Statistics

Aircraft based on the field: 9
Single engine airplanes: 8
Ultralights: 1
    
Aircraft operations: avg 41/day *
80% local general aviation
20% transient general aviation
* for 12-month period ending 19 March 2020

Additional Remarks

BIRDS IN VICINITY OF AIRPORT.
FOR CD CTC MEMPHIS ARTCC AT 901-368-8453.

Instrument Procedures

There are no published instrument procedures at L33.

Some nearby airports with instrument procedures:

KHEZ - Hardy-Anders Field Natchez-Adams County Airport (22 nm S)
KVKS - Vicksburg Municipal Airport (22 nm NE)
KTVR - Vicksburg Tallulah Regional Airport (25 nm NE)
0R4 - Concordia Parish Airport (28 nm SW)
M79 - John H Hooks Jr Memorial Airport (41 nm NW)
 
Loc | Ops | Rwys | IFR | FBO | Links
Com | Nav | Svcs | Stats | Notes
Area around L33 (Tensas Parish Airport)
 
Road maps at: MapQuest Bing Google
 
Aerial photo
WARNING: Photo may not be current or correct
Aerial photo of L33 (Tensas Parish Airport)
Photo taken 30-Nov-2012
looking north.

Do you have a better or more recent aerial photo of Tensas Parish Airport that you would like to share? If so, please send us your photo.

 
Sectional chart

 
Airport distance calculator
Flying to Tensas Parish Airport? Find the distance to fly.

From to L33

Sunrise and sunset
Times for 07-Aug-2020
 Local
(UTC-5)
 Zulu
(UTC)
Morning civil twilight06:0011:00
Sunrise06:2611:26
Sunset19:5500:55
Evening civil twilight20:2101:21

Current date and time
Zulu (UTC)  07-Aug-2020 21:25:25
Local (UTC-5)  07-Aug-2020 16:25:25
 
METAR
KHEZ 
22nm S 
072056Z AUTO VRB04KT 10SM CLR 32/19 A3007 RMK AO2 SLP181 T03220189 58008
KVKS 
22nm NE 
072055Z AUTO 33007KT 10SM CLR 32/21 A3005 RMK A01
KTVR 
25nm NE 
072053Z AUTO 02006KT 10SM CLR 34/18 A3007 RMK AO2 SLP188 T03390183 56007
K0R4 
28nm SW 
072055Z AUTO 00000KT 10SM CLR 34/18 A3005 RMK AO2 T03350183
TAF
NOTAMs
Click for the latest NOTAMs
NOTAMs are issued by the DoD/FAA and will open in a separate window not controlled by AirNav.

 

 
 

FBO, Fuel Providers, and Aircraft Ground Support

  
 Business Name 
 
 Contact 
 
 Services / Description 
 
Fuel Prices
 
Comments
  
Tensas Parish Airport Authority 985-665-7145
[email]
Aviation fuel, Aircraft parking (ramp or tiedown), Hangar leasing / sales, Aerial tours / aerial sightseeing, Aerial photography, Pilots lounge / snooze room, ...

More info about Tensas Parish Airport Authority
100LL
SS $2.99 
 Updated 04-Aug-2020
 
   write
SS=Self service
Update Fuel Prices
 

Would you like to see your business listed on this page?

 If your business provides an interesting product or service to pilots, flight crews, aircraft, or users of the Tensas Parish Airport, you should consider listing it here.  To start the listing process, click on the button below
 
Add a business
 

Other Pages about Tensas Parish Airport

Update a link
 
Copyright © AirNav, LLC. All rights reserved. Privacy Policy  Contact